This is the latest recevied weather packets stored in our database for station/object EA3BNF-1. If no packets are shown the sender has not sent any weather packets the latest 10 day(s).
| Time | Temp. | Humidity | Pressure | Rain* | Wind** | Luminosity | Snow |
|---|---|---|---|---|---|---|---|
| 1777511023 | 17.78° C | 73% | 1014.9 hPa | - | - | - | - |
| 1777510367 | 17.78° C | 73% | 1014.9 hPa | - | - | - | - |
| 1777509711 | 18.33° C | 72% | 1014.9 hPa | - | - | - | - |
| 1777509056 | 18.33° C | 71% | 1014.9 hPa | - | - | - | - |
| 1777508401 | 18.33° C | 73% | 1015 hPa | - | - | - | - |
| 1777507745 | 18.33° C | 72% | 1015 hPa | - | - | - | - |
| 1777507089 | 18.33° C | 72% | 1015 hPa | - | - | - | - |
| 1777506433 | 18.33° C | 71% | 1014.9 hPa | - | - | - | - |
| 1777505778 | 18.33° C | 70% | 1014.9 hPa | - | - | - | - |
| 1777505122 | 18.33° C | 71% | 1014.9 hPa | - | - | - | - |
| 1777504466 | 18.33° C | 70% | 1014.8 hPa | - | - | - | - |
| 1777503810 | 18.33° C | 72% | 1014.8 hPa | - | - | - | - |
| 1777503155 | 18.33° C | 73% | 1014.8 hPa | - | - | - | - |
| 1777502499 | 18.33° C | 73% | 1014.8 hPa | - | - | - | - |
| 1777501843 | 18.33° C | 75% | 1014.8 hPa | - | - | - | - |
| 1777501187 | 18.33° C | 75% | 1014.8 hPa | - | - | - | - |
| 1777500532 | 18.89° C | 73% | 1014.9 hPa | - | - | - | - |
| 1777499876 | 18.89° C | 75% | 1014.9 hPa | - | - | - | - |
| 1777499220 | 19.44° C | 72% | 1015 hPa | - | - | - | - |
| 1777498565 | 19.44° C | 72% | 1015 hPa | - | - | - | - |
| 1777497909 | 19.44° C | 74% | 1015.1 hPa | - | - | - | - |
| 1777497253 | 19.44° C | 75% | 1015 hPa | - | - | - | - |
| 1777496598 | 19.44° C | 74% | 1014.8 hPa | - | - | - | - |
| 1777495943 | 19.44° C | 74% | 1014.7 hPa | - | - | - | - |
| 1777495287 | 19.44° C | 74% | 1014.4 hPa | - | - | - | - |
* Rain since midnight (hover to see other rain measurements)
** Current wind speed in m/s (hover to see current wind gust speed)